Location: Unspecified
(0.0000°N, 0.0000°E)
Time: 06:24:32
(UTC+01:00)

OPAL - Visible Passes

Search period start: 01 November 2014 00:00
Search period end: 11 November 2014 00:00
Orbit: 744 x 797 km, 100.2° (Epoch: 31 October)

Date Brightness Start Highest point End Pass type
(mag) Time Alt. Az. Time Alt. Az. Time Alt. Az.
01 Nov 10.0 05:07:58 10° ESE 05:11:44 20° ENE 05:15:27 10° NNE visible
02 Nov 7.6 06:10:02 10° S 06:15:13 69° WSW 06:20:18 10° NNW visible
03 Nov 8.8 05:35:11 10° SSE 05:40:04 43° ENE 05:44:53 10° N visible
04 Nov 10.3 05:01:55 10° ESE 05:04:56 16° ENE 05:07:55 10° NE visible
04 Nov 10.5 19:12:57 10° NW 19:15:03 13° WNW 19:17:09 10° W visible
05 Nov 7.6 06:03:13 10° SSE 06:08:25 89° WSW 06:13:31 10° NNW visible
06 Nov 9.2 05:28:40 10° SE 05:33:16 33° ENE 05:37:48 10° NNE visible
07 Nov 10.4 04:56:22 10° E 04:58:08 12° ENE 04:59:53 10° NE visible
07 Nov 10.2 19:05:06 10° NW 19:08:14 17° WNW 19:11:24 10° WSW visible
08 Nov 7.9 05:56:28 10° SSE 06:01:37 71° ENE 06:06:40 10° N visible
09 Nov 9.7 05:22:16 10° SE 05:26:28 25° ENE 05:30:35 10° NNE visible
